CZ-3C DEB, 40819

Orbit data source: Space-Track

CZ-3C DEB, 40819 is space debris in HEO originally from a launch on Sun, 31 Oct 2010 UTC launched from the Xichang Space Center, China (XSC). Debris objects in space refer to the collection of defunct objects orbiting the Earth. Examples of debris include non-operational satellites, rocket bodies, and fragments generated from explosions, collisions, or faulty payload assembly.

Loading next visibility...
Identifier
40819, 2010-057AL
Orbit
HEO
Country
Flag of CNCN / PRC
Related business
Manufacturer
CALT
Mission
Spacecraft
Bus & Motor
Unknown
Mass
Unknown
Launch date (UTC)
2010-10-31 (15 years ago)
Launch vehicle
Unknown
Launch site
Xichang Space Center, China (XSC)
Object type
Payload
Rocket body
Debris
Shape & HBR
Unknown shape, 0.3 m
Radar Cross Section
Medium (>0.1 m² and <1 m²)

Expand to show TLE details & history
Last TLE update: 2 days ago

TLE from 2 days ago
0 CZ-3C DEB
1 40819U 10057AL  25297.42726540  .00001584  00000-0  12483-1 0  9997
2 40819  20.6011  69.3061 7136560 206.0784  85.8911  2.32122592 91217
Epoch: 2025-10-24T10:15Z
TLE epoch observation values (Epoch: 2025-10-24T10:15:15.730Z)
Latitude
-0.00005°
Longitude
-117.64736°
Altitude
26,573.944 km
Speed
2.766 km/s
True Right ascension
04h 36m 57s
True Declination
0° 00' 00"
Sunlit
Object was in daylight at epoch
Visualization orbit readout
Latitude
Unknown
Longitude
Unknown
Altitude
Unknown
Speed
Unknown
Apparent Right ascension
Unknown
Apparent Declination
Unknown
Sunlit
N/A
Visualization observer readout
Local Sidereal Time
02:51:53
Azimuth
Unknown
Elevation
Unknown
Doppler factor
Unknown
Orbital elements
Apogee altitude
34,919.531 km
Perigee altitude
522.513 km
Semi-major axis
24,099.159 km
Eccentricity
0.71366
Inclination
20.6011°
RAAN
69.3061°
Arg. of periapsis
206.0784°
True anomaly
153.9336°
Mean anomaly
85.8911°
Eccentric anomaly
120.95628°
Mean motion
0.58015 °/min
Orbital period
620.53 mins
BSTAR
0.012483
Loading maneuver chart data...
Computing Atmospheric mass density...
Loading historical data...
Loading historical data...
Loading historical data...
Loading historical data...
Loading historical data...
Loading historical data...
Loading historical data...

Documentation

Showing up to 5 results
|